Weather History for Cleveland Burke, OH

Change the Weather History Date:

Wednesday, January 10, 2001

  Actual Average Record
Temperature  
Mean Temperature 28 °F -  
Max Temperature 36 °F 33 °F 52 °F (2000)
Min Temperature 19 °F 22 °F 5 °F (1999)
Degree Days  
Heating Degree Days 38    
Moisture  
Dew Point 18 °F    
Average Humidity 65    
Maximum Humidity 81    
Minimum Humidity 52    
Precipitation  
Precipitation 0.00 in - - ()
Sea Level Pressure  
Sea Level Pressure 30.16 in    
Wind  
Wind Speed 18 mph (SW)    
Max Wind Speed 24 mph    
Max Gust Speed 31 mph    
Visibility 10 miles    
Events      
Averages and records for this station are not official NWS values.
T = Trace of Precipitation, MM = Missing Value Source: NWS Daily Summary

Daily Weather History Graph

Daily Weather History Graph

Search for Another Location

Airport:

Trip Planner

Search our weather history database for the weather conditions in past years. The results will help you decide how hot, cold, wet, or windy it might be!

Date:

Astronomy

Jan. 10, 2001 Rise Set
Actual Time 7:52 AM EST 5:16 PM EST
Civil Twilight 7:21 AM EST 5:47 PM EST
Nautical Twilight 6:47 AM EST 6:21 PM EST
Astronomical Twilight 6:13 AM EST 6:55 PM EST
Moon 6:27 PM EST (1/10) 8:38 AM EST (1/10)
Length of Visible Light 10h 25m
Length of Day
9h 23m
Full, 99% of the Moon is Illuminated
Jan 10
Full
Jan 16
Last Quarter
Jan 24
New
Feb 1
First Quarter
Feb 8
Full

Hourly Weather History & Observations

Time (EST) Temp. Windchill Dew Point Humidity Pressure Visibility Wind Dir Wind Speed Gust Speed Precip Events Conditions
12:53 AM 21.9 °F 5.8 °F 15.1 °F 75% 30.11 in 10.0 mi WSW 23.0 mph 31.1 mph N/A   Clear
1:53 AM 21.9 °F 6.2 °F 15.1 °F 75% 30.12 in 10.0 mi WSW 21.9 mph 27.6 mph N/A   Clear
2:53 AM 21.9 °F 8.2 °F 15.1 °F 75% 30.14 in 10.0 mi WSW 16.1 mph - N/A   Clear
3:53 AM 21.0 °F 9.3 °F 15.1 °F 78% 30.14 in 10.0 mi WSW 11.5 mph - N/A   Clear
4:53 AM 19.9 °F 7.9 °F 14.0 °F 78% 30.15 in 10.0 mi SW 11.5 mph - N/A   Clear
5:53 AM 19.9 °F 7.9 °F 14.0 °F 78% 30.16 in 10.0 mi SW 11.5 mph - N/A   Clear
6:53 AM 19.9 °F 7.3 °F 14.0 °F 78% 30.18 in 10.0 mi SW 12.7 mph - N/A   Clear
7:53 AM 19.9 °F 7.9 °F 15.1 °F 81% 30.19 in 10.0 mi SW 11.5 mph - N/A   Clear
8:53 AM 23.0 °F 9.6 °F 16.0 °F 74% 30.20 in 9.0 mi SW 16.1 mph - N/A   Clear
9:53 AM 25.0 °F 11.7 °F 18.0 °F 75% 30.20 in 10.0 mi SW 17.3 mph - N/A   Clear
10:53 AM 28.0 °F 16.1 °F 19.0 °F 69% 30.20 in 10.0 mi SSW 16.1 mph - N/A   Clear
11:53 AM 32.0 °F 20.5 °F 21.0 °F 64% 30.19 in 10.0 mi SW 18.4 mph 24.2 mph N/A   Clear
12:53 PM 34.0 °F 25.0 °F 21.0 °F 59% 30.17 in 10.0 mi SW 12.7 mph - N/A   Clear
1:53 PM 35.1 °F 24.5 °F 21.9 °F 59% 30.15 in 10.0 mi SSW 18.4 mph - N/A   Clear
2:53 PM 36.0 °F 26.0 °F 21.9 °F 57% 30.14 in 10.0 mi SW 17.3 mph - N/A   Clear
3:53 PM 36.0 °F 26.0 °F 21.9 °F 57% 30.14 in 10.0 mi SW 17.3 mph - N/A   Clear
4:53 PM 35.1 °F 23.8 °F 19.0 °F 52% 30.14 in 10.0 mi SSW 20.7 mph 28.8 mph N/A   Clear
5:53 PM 34.0 °F 21.5 °F 18.0 °F 52% 30.15 in 10.0 mi SSW 24.2 mph 28.8 mph N/A   Clear
6:53 PM 33.1 °F 22.2 °F 18.0 °F 54% 30.17 in 10.0 mi SW 17.3 mph - N/A   Clear
7:53 PM 34.0 °F 22.1 °F 18.0 °F 52% 30.17 in 10.0 mi SSW 21.9 mph 29.9 mph N/A   Clear
8:53 PM 33.1 °F 21.9 °F 18.0 °F 54% 30.16 in 10.0 mi SW 18.4 mph 26.5 mph N/A   Clear
9:53 PM 33.1 °F 22.6 °F 18.0 °F 54% 30.14 in 10.0 mi SSW 16.1 mph 23.0 mph N/A   Clear
10:53 PM 33.1 °F 21.9 °F 18.0 °F 54% 30.12 in 10.0 mi SSW 18.4 mph 24.2 mph N/A   Clear
11:53 PM 33.1 °F 22.2 °F 18.0 °F 54% 30.12 in 10.0 mi SSW 17.3 mph - N/A   Clear